COSMOS 778

导读 | 豆包AI

COSMOS 778是苏联(独立后归属独联体CIS)1975年11月4日发射的“宇宙”系列卫星。该系列卫星多数承担军事侦察、空间环境探测等任务,任务细节长期未公开。作为冷战时期苏联航天活动的产物,它延续了宇宙系列保密传统,完成既定使命后最终坠入地球大气层,是苏联航天发展历程中的一颗普通军用卫星。

基本信息
目录编号:
8419
目录名称:
COSMOS 778
国际标识:
1975-103A
轨道中心:
EARTH
卫星名称:
COSMOS 778
卫星全名:
--
卫星状态:
在轨 (已飞行18414 天)
发射日期:
1975-11-04 UTC
国别 :
俄罗斯(独联体) (CIS)
星等 :
--
轨道信息
数据来源 国际轨道数据 AOE轨道数据
星历时间 2026-04-04T03:41:08+0800
7小时前
查看轨道信息
2026-03-31T21:00:00+0800
3天前
查看轨道信息
半长轴 7360.368km 7360.369km
偏心率 0.0023133 0.0023163
轨道倾角 82.978° 82.979°
近地点辐角 64.459° 73.763°
升交点赤经 348.834° 351.251°
平近点角 2.601° 335.374°
近地点 965.204km 965.183km
远地点 999.258km 999.281km
周期 104.739分钟 104.739分钟
每日圈数 13.748444 13.74844
详细信息
使用方式:
暂无
2D轨道图
3D轨道图
轨道高度分析图
轨道倾角分析图
轨道综合分析图
查看轨道综合分析图